カタログに戻る

LO-19

OSCAR 19

運用中アマチュア無線SSO
NORAD 20442·PAYLOAD·🇦🇷 Argentina

打ち上げ Jan 22, 1990 から Guiana Space Centre

Loading…

次のパス (今後24時間)

TLE

最新Source: Space-Track

元期: Sep 14, 2026, 11:38 UTC

1 20442U 90005G   26257.48512804  .00000054  00000-0  36164-4 0  9993
2 20442  98.8823 281.7394 0010636 307.5219  52.4997 14.34143814915193

AllMySatでLO-19をリアルタイム追跡

Download on the App Store